| time (UTC) | temp F | wind direction | speed MPH | gust MPH | rain 1hr in | rain 24hr in | rain mn in | humidity % | barometer mb |
| 20260502151557 | 67 | 351 | 0.0 | 6.0 | 0.00 | 0.00 | 0.00 | 56 | 1022.2 |
| 20260502150110 | 66 | 0 | 1.0 | 6.0 | 0.00 | 0.00 | 0.00 | 64 | 1022.1 |
| 20260502130110 | 53 | 0 | 0.0 | 0.0 | 0.00 | 0.01 | 0.00 | 84 | 1021.4 |
| 20260502123101 | 51 | 262 | 0.0 | 3.0 | 0.00 | 0.01 | 0.00 | 86 | 1020.9 |
| 20260502121555 | 50 | 0 | 0.0 | 0.0 | 0.00 | 0.01 | 0.00 | 87 | 1020.8 |
| 20260502114553 | 49 | 0 | 0.0 | 0.0 | 0.00 | 0.01 | 0.00 | 86 | 1020.2 |
| 20260502113053 | 49 | 0 | 0.0 | 0.0 | 0.00 | 0.01 | 0.00 | 86 | 1020.0 |
| 20260502111556 | 49 | 0 | 0.0 | 0.0 | 0.00 | 0.01 | 0.00 | 86 | 1019.6 |
| 20260502110053 | 49 | 0 | 0.0 | 0.0 | 0.00 | 0.01 | 0.00 | 86 | 1019.5 |
| 20260502104551 | 50 | 0 | 0.0 | 0.0 | 0.00 | 0.01 | 0.00 | 85 | 1019.3 |
| 20260502103051 | 50 | 0 | 0.0 | 0.0 | 0.00 | 0.01 | 0.00 | 85 | 1019.2 |
| 20260502101552 | 50 | 0 | 0.0 | 3.0 | 0.00 | 0.01 | 0.00 | 84 | 1019.1 |
| 20260502080104 | 51 | 0 | 0.0 | 0.0 | 0.00 | 0.01 | 0.00 | 80 | 1019.0 |
| 20260502070053 | 52 | 0 | 0.0 | 0.0 | 0.00 | 0.01 | 0.00 | 81 | 1019.3 |
| 20260502064601 | 52 | 0 | 0.0 | 0.0 | 0.00 | 0.01 | 0.00 | 81 | 1019.2 |
| 20260502063120 | 52 | 0 | 0.0 | 0.0 | 0.00 | 0.01 | 0.00 | 81 | 1019.1 |
| 20260502061558 | 53 | 0 | 0.0 | 0.0 | 0.00 | 0.01 | 0.00 | 80 | 1019.1 |
| 20260502060058 | 53 | 0 | 0.0 | 0.0 | 0.00 | 0.01 | 0.00 | 79 | 1019.3 |
| 20260502054556 | 54 | 0 | 0.0 | 0.0 | 0.00 | 0.01 | 0.00 | 78 | 1019.4 |
| 20260502053101 | 54 | 0 | 0.0 | 0.0 | 0.00 | 0.01 | 0.00 | 77 | 1019.4 |
| 20260502051558 | 55 | 0 | 0.0 | 0.0 | 0.00 | 0.01 | 0.00 | 77 | 1019.5 |
| 20260502050054 | 55 | 0 | 0.0 | 0.0 | 0.00 | 0.01 | 0.00 | 72 | 1019.2 |
| 20260502044553 | 56 | 0 | 0.0 | 0.0 | 0.00 | 0.01 | 0.01 | 71 | 1019.1 |
| 20260502043055 | 57 | 0 | 0.0 | 0.0 | 0.00 | 0.01 | 0.01 | 70 | 1019.3 |
| 20260502041556 | 57 | 0 | 0.0 | 0.0 | 0.00 | 0.01 | 0.01 | 69 | 1019.2 |
| 20260502040101 | 57 | 0 | 0.0 | 0.0 | 0.00 | 0.01 | 0.01 | 69 | 1019.1 |
| 20260502034556 | 58 | 0 | 0.0 | 0.0 | 0.00 | 0.01 | 0.01 | 69 | 1018.9 |
| 20260502033055 | 58 | 0 | 0.0 | 0.0 | 0.00 | 0.01 | 0.01 | 69 | 1018.8 |
| 20260502031552 | 58 | 0 | 0.0 | 0.0 | 0.00 | 0.01 | 0.01 | 69 | 1018.6 |
| 20260502030054 | 58 | 0 | 0.0 | 0.0 | 0.00 | 0.01 | 0.01 | 70 | 1018.7 |
| 20260502024606 | 58 | 0 | 0.0 | 0.0 | 0.00 | 0.01 | 0.01 | 68 | 1018.7 |
| 20260502023054 | 59 | 0 | 0.0 | 0.0 | 0.00 | 0.01 | 0.01 | 67 | 1018.5 |
| 20260502021554 | 59 | 0 | 0.0 | 0.0 | 0.00 | 0.01 | 0.01 | 68 | 1018.3 |
| 20260502020055 | 59 | 0 | 0.0 | 0.0 | 0.00 | 0.01 | 0.01 | 67 | 1018.0 |
| 20260502014553 | 59 | 0 | 0.0 | 0.0 | 0.00 | 0.01 | 0.01 | 67 | 1017.9 |
| 20260502013054 | 60 | 0 | 0.0 | 0.0 | 0.00 | 0.01 | 0.01 | 65 | 1017.5 |
| 20260502011602 | 60 | 0 | 0.0 | 0.0 | 0.00 | 0.01 | 0.01 | 64 | 1017.1 |
| 20260502010111 | 61 | 0 | 0.0 | 0.0 | 0.00 | 0.01 | 0.01 | 64 | 1016.8 |
| 20260502004554 | 61 | 0 | 0.0 | 0.0 | 0.00 | 0.01 | 0.01 | 62 | 1016.5 |
| 20260502003051 | 61 | 0 | 0.0 | 0.0 | 0.00 | 0.01 | 0.01 | 63 | 1016.0 |
| 20260502001552 | 62 | 0 | 0.0 | 0.0 | 0.00 | 0.01 | 0.01 | 63 | 1015.9 |
| 20260502000059 | 62 | 0 | 0.0 | 0.0 | 0.00 | 0.01 | 0.01 | 63 | 1015.7 |
| 20260501234552 | 62 | 0 | 0.0 | 0.0 | 0.00 | 0.01 | 0.01 | 64 | 1015.5 |
| 20260501233053 | 63 | 139 | 0.0 | 1.0 | 0.00 | 0.01 | 0.01 | 61 | 1015.6 |
| 20260501231613 | 63 | 0 | 0.0 | 0.0 | 0.00 | 0.01 | 0.01 | 62 | 1015.5 |
| 20260501230058 | 63 | 0 | 0.0 | 0.0 | 0.00 | 0.01 | 0.01 | 61 | 1015.5 |
| 20260501224603 | 63 | 0 | 0.0 | 0.0 | 0.00 | 0.01 | 0.01 | 62 | 1015.2 |
| 20260501223059 | 63 | 0 | 0.0 | 0.0 | 0.00 | 0.01 | 0.01 | 62 | 1015.4 |
| 20260501221608 | 63 | 0 | 0.0 | 2.0 | 0.00 | 0.01 | 0.01 | 60 | 1015.4 |
| 20260501220058 | 63 | 0 | 0.0 | 0.0 | 0.00 | 0.01 | 0.01 | 58 | 1015.4 |
| 20260501214553 | 64 | 0 | 0.0 | 4.0 | 0.00 | 0.02 | 0.01 | 59 | 1015.2 |
| 20260501213054 | 64 | 0 | 0.0 | 8.0 | 0.00 | 0.02 | 0.01 | 57 | 1015.2 |
| 20260501211607 | 64 | 0 | 0.0 | 2.0 | 0.00 | 0.02 | 0.01 | 59 | 1015.3 |
| 20260501210052 | 64 | 0 | 0.0 | 4.0 | 0.00 | 0.02 | 0.01 | 57 | 1015.5 |
| 20260501204557 | 64 | 0 | 0.0 | 0.0 | 0.00 | 0.02 | 0.01 | 56 | 1016.0 |
| 20260501203056 | 63 | 0 | 0.0 | 1.0 | 0.00 | 0.02 | 0.01 | 56 | 1016.2 |
| 20260501201554 | 62 | 0 | 0.0 | 6.0 | 0.00 | 0.02 | 0.01 | 58 | 1016.4 |
| 20260501200056 | 62 | 0 | 0.0 | 8.0 | 0.00 | 0.02 | 0.01 | 59 | 1016.5 |
| 20260501194556 | 63 | 0 | 0.0 | 7.0 | 0.00 | 0.02 | 0.01 | 54 | 1016.5 |
| 20260501193053 | 64 | 0 | 0.0 | 5.0 | 0.00 | 0.02 | 0.01 | 54 | 1016.0 |
| 20260501191553 | 63 | 0 | 0.0 | 6.0 | 0.00 | 0.02 | 0.01 | 53 | 1015.5 |
| 20260501190053 | 63 | 0 | 0.0 | 5.0 | 0.00 | 0.02 | 0.01 | 53 | 1015.3 |
| 20260501184553 | 63 | 0 | 0.0 | 4.0 | 0.00 | 0.02 | 0.01 | 52 | 1015.1 |
| 20260501183051 | 64 | 0 | 0.0 | 2.0 | 0.00 | 0.02 | 0.01 | 53 | 1016.0 |
| 20260501181552 | 65 | 0 | 0.0 | 6.0 | 0.00 | 0.02 | 0.01 | 52 | 1015.7 |
| 20260501180058 | 65 | 0 | 0.0 | 6.0 | 0.00 | 0.02 | 0.01 | 50 | 1016.0 |
| 20260501174558 | 67 | 0 | 0.0 | 6.0 | 0.00 | 0.02 | 0.01 | 51 | 1015.9 |
| 20260501173052 | 67 | 0 | 0.0 | 7.0 | 0.00 | 0.02 | 0.01 | 49 | 1016.2 |
| 20260501171552 | 66 | 0 | 0.0 | 8.0 | 0.00 | 0.02 | 0.01 | 51 | 1016.3 |
| 20260501170055 | 64 | 150 | 0.0 | 3.0 | 0.00 | 0.02 | 0.01 | 56 | 1016.2 |
| 20260501164556 | 61 | 0 | 0.0 | 6.0 | 0.00 | 0.03 | 0.01 | 62 | 1016.5 |
| 20260501163056 | 61 | 0 | 0.0 | 8.0 | 0.00 | 0.03 | 0.01 | 65 | 1016.9 |
| 20260501161602 | 60 | 0 | 0.0 | 2.0 | 0.00 | 0.03 | 0.01 | 72 | 1016.6 |
| 20260501160055 | 59 | 0 | 0.0 | 4.0 | 0.00 | 0.03 | 0.01 | 78 | 1016.5 |
| 20260501154635 | 59 | 0 | 0.0 | 0.0 | 0.00 | 0.06 | 0.01 | 81 | 1016.8 |
| 20260501153058 | 58 | 0 | 0.0 | 0.0 | 0.00 | 0.06 | 0.01 | 84 | 1016.6 |